Location: Gebenbach
(49.5378°N, 11.8735°E)
Time: 03:37:55
(UTC+00:00)

CSL-04 Debris - Pass Details

Date: 29 October 2020
Orbit: 827 x 848 km, 98.9° (Epoch: 27 November)

Event Time Altitude Azimuth Distance (km) Brightness Sun altitude
Rises 17:36:35 0° 152° (SSE) 3,376 7.1 -17.0°
Reaches altitude 10° 17:38:56 10° 149° (SSE) 2,449 6.3 -17.3°
Maximum altitude 17:44:17 62° 69° (ENE) 945 4.1 -18.2°
Drops below altitude 10° 17:49:42 10° 350° (N) 2,479 6.8 -19.1°
Sets 17:52:06 0° 348° (NNW) 3,420 7.5 -19.5°
